This demonstration page uses our WeatherBlox Daily Observations layout. Learn more.

Left ArrowRight Arrow

Hourly Observations for May 31, 2015

Temp ( °F °C ) Dew Point ( °F °C ) Humidity (%) Winds ( mph kmh ) Pressure ( in mb ) Visibility ( mi km ) Precip ( " mm )
12:53 am 00:53 Mostly Cloudy 74 23.3 66 18.9 76 76 NW 6 9 29.95 1014 10 16 0.00 0.00
1:53 am 01:53 Mostly Cloudy with Light Rain 70 21.1 66 18.9 87 87 Calm 29.95 1014 10 16 0.00 0.03
2:53 am 02:53 Mostly Clear with Light Rain 68 20 66 18.9 93 93 Calm 29.93 1014 10 16 0.00 0.03
3:53 am 03:53 Cloudy 72 22.2 63 17.2 73 73 S 5 7 29.92 1013 10 16 0.00 0.03
4:53 am 04:53 Mostly Clear 72 22.2 63 17.2 73 73 undefined N/A 29.91 1013 10 16 0.00 0.00
5:34 am 05:34 Mostly Cloudy 72 22.2 63 17.2 73 73 SSW 7 11 29.94 1014 10 16 0.00 0.00
5:53 am 05:53 Cloudy 72 22.2 64 17.8 76 76 VRB 6 9 29.91 1013 10 16 0.00 0.00
6:20 am 06:20 Cloudy 72 22.2 64 17.8 76 76 S 5 7 29.94 1014 10 16 0.00 0.00
6:40 am 06:40 Cloudy 72 22.2 64 17.8 76 76 VRB 6 9 29.94 1014 10 16 0.00 0.00
6:53 am 06:53 Cloudy 72 22.2 64 17.8 76 76 VRB 6 9 29.91 1013 10 16 0.00 0.00
7:21 am 07:21 Cloudy 72 22.2 64 17.8 76 76 VRB 6 9 29.94 1014 10 16 0.00 0.00
7:53 am 07:53 Cloudy 72 22.2 64 17.8 76 76 VRB 6 9 29.92 1013 10 16 0.00 0.00
8:53 am 08:53 Cloudy 72 22.2 65 18.3 79 79 SSW 10 17 29.93 1013 10 16 0.00 0.00
9:03 am 09:03 Cloudy 72 22.2 65 18.3 79 79 SSW 14 22 29.94 1014 10 16 0.00 0.00
9:53 am 09:53 Cloudy 72 22.2 65 18.3 79 79 WSW 8 13 29.94 1014 10 16 0.00 0.00
10:13 am 10:13 Cloudy 73 22.8 66 18.9 79 79 WSW 9 15 29.97 1015 10 16 0.00 0.00
10:53 am 10:53 Cloudy 72 22.2 66 18.9 82 82 W 9 15 29.96 1015 10 16 0.00 0.00
11:53 am 11:53 Cloudy 71 21.7 63 17.2 76 76 SW 10 17 29.98 1015 10 16 0.00 0.00
12:07 pm 12:07 Cloudy 71 21.7 64 17.8 79 79 WSW 9 15 30.00 1016 10 16 0.00 0.00
12:53 pm 12:53 Cloudy 67 19.4 61 16.1 81 81 W 10 17 30.01 1016 10 16 0.00 0.00
1:53 pm 13:53 Cloudy 66 18.9 60 15.6 81 81 WSW 8 13 30.02 1017 10 16 0.00 0.00
2:53 pm 14:53 Cloudy with Light Rain 65 18.3 62 16.7 90 90 WSW 7 11 30.03 1017 3 5 0.00 0.03
3:11 pm 15:11 Cloudy with Light Rain 64 17.8 61 16.1 90 90 WSW 8 13 30.03 1017 2 3 0.01 0.25
3:18 pm 15:18 Cloudy with Light Rain 63 17.2 62 16.7 97 97 W 7 11 30.06 1018 2 2 0.01 0.25
3:34 pm 15:34 Cloudy with Light Rain 64 17.8 62 16.7 93 93 WNW 8 13 30.03 1017 2 2 0.03 0.76
3:41 pm 15:41 Cloudy with Light Rain 63 17.2 62 16.7 97 97 NW 10 17 30.03 1017 2 3 0.04 1.02
3:47 pm 15:47 Cloudy with Light Rain 63 17 61 16 94 94 NW 12 19 30.03 1017 3 5 0.04 1.02
3:53 pm 15:53 Cloudy with Mist and Fog 63 17.2 61 16.1 93 93 NW 8 13 30.04 1017 4 6 0.04 1.02
4:04 pm 16:04 Cloudy 64 17.8 61 16.1 90 90 WNW 7 11 30.06 1018 10 16 0.00 0.00
4:28 pm 16:28 Cloudy 63 17.2 59 15 87 87 WNW 10 17 30.06 1018 10 16 0.00 0.00
4:50 pm 16:50 Cloudy 64 18 59 15 83 83 WNW 8 13 30.06 1018 10 16 0.00 0.00
4:53 pm 16:53 Cloudy 64 17.8 59 15 84 84 WNW 7 11 30.04 1017 10 16 0.00 0.00
5:53 pm 17:53 Cloudy 62 16.7 58 14.4 86 86 NNW 8 13 30.05 1018 10 16 0.00 0.00
6:53 pm 18:53 Cloudy 61 16.1 56 13.3 84 84 NNW 8 13 30.06 1018 10 16 0.00 0.00
7:53 pm 19:53 Cloudy 61 16.1 55 12.8 81 81 N 12 19 30.07 1018 10 16 0.00 0.00
8:53 pm 20:53 Cloudy 59 15 54 12.2 83 83 N 9 15 30.09 1019 10 16 0.00 0.00
9:14 pm 21:14 Cloudy 58 14.4 53 11.7 84 84 NNE 12 19 30.06 1018 10 16 0.00 0.00
9:53 pm 21:53 Cloudy 58 14.4 52 11.1 81 81 NNE 8 13 30.11 1020 10 16 0.00 0.00
10:08 pm 22:08 Cloudy 57 13.9 52 11.1 83 83 NNE 9 15 30.12 1020 10 16 0.00 0.00
10:53 pm 22:53 Cloudy 57 13.9 51 10.6 81 81 N 8 13 30.13 1020 10 16 0.00 0.00
11:53 pm 23:53 Cloudy 56 13.3 51 10.6 84 84 NNE 7 11 30.15 1021 10 16 0.00 0.00

Powered by AerisWeather